Погода в Каменка-Бугской

Украина / Львовская область     50°06′17″N   24°20′15″E
темп.,
°C
ветер,
м/с
пор.,
м/с
влажн.,
%
обл.,
%
осадки,
мм/ч
давл.,
гПа
погр.,
м
27 января, ср
ср2723:00−2з6128923 0.0 1011473
02:00−3з5129041 0.0 1011442
05:00−4з4109144 0.0 1012402
08:00−3з5108869 0.0 1011549
11:00−2зсз588694 0.0 1012555
14:00−1зсз478497 0.1 1011783
17:00−2зсз379299 0.2 1010285
20:00−2сз5109499 0.4 1010559
28 января, чт
чт2823:00−3сз5994100 0.3 1010521
02:00−3сз5995100 0.4 1010421
05:00−3сз61094100 0.3 1010484
08:00−4сз4994100 0.4 1010407
11:00−2сз5790100 0.2 1009594
14:00−2сз578298 0.3 1008800
17:00−2з368497 0.0 1006442
20:00−4юз358993 0.0 1005107
29 января, пт
пт2923:00−2юз4981100 0.0 1003301
02:00−2зюз51281100 0.1 1002499
05:00−2зюз51196100 0.3 1000507
08:00−2з51092100 1.2 1001404
11:00−1зсз6107966 0.0 1002893
14:00−1з6107145 0.0 1001828
17:00−2з5117943 0.0 1002372
20:00−3з388148 0.0 1002224
30 января, сб
сб3023:00−3з1278100 0.0 100222
02:00−3св117899 0.0 100121
05:00−4св0088100 0.1 100090
08:00−4зсз1191100 0.3 1001106
11:00−2зюз238296 0.0 1001333
14:00−1зюз127290 0.0 1000524
17:00−2юв238679 0.0 99967
20:00−3вюв349789 0.9 998211
31 января, вс
вс3123:00−2вюв2398100 1.7 998136
02:00−3ссв4597100 3.6 998210
05:00−4ссв4796100 3.1 998277
08:00−5ссв5796100 4.3 1000329
11:00−4с5795100 1.2 1002410
14:00−3с5892100 1.5 1002617
17:00−4ссз4893100 0.1 1003451
20:00−6ссз5994100 0.1 1004324